Regional Weather Roundup
Issued by NWS

Home | Current Version | Previous Version | Text Only | Print | Product List | Glossary Off
Versions: 1 2 3 4 5 6 7 8 9 10 11 12 13 14 15 16 17 18 19 20 21 22 23 24 25 26 27 28 29 30 31 32 33 34 35 36 37 38 39 40 41 42 43 44 45 46 47 48 49 50

000
ASUS45 KBOI 201010
RWRID

IDAHO REGIONAL WEATHER ROUNDUP
NATIONAL WEATHER SERVICE BOISE ID
300 AM MST MON FEB 20 2017

NOTE: "FAIR" INDICATES FEW OR NO CLOUDS BELOW 12000 FEET
WITH NO SIGNIFICANT WEATHER AND/OR OBSTRUCTIONS TO VISIBILITY

IDZ012-014-201100-
SOUTHWEST IDAHO


CITY           SKY/WX    TMP DP  RH WIND       PRES   REMARKS
BOISE          CLOUDY    45  33  63 SE21      29.77S
CALDWELL       CLOUDY    42  35  76 E16       29.75F
MOUNTAIN HOME  CLOUDY    39  39 100 E18       29.80F WCI  29
$$

IDZ016-017-201100-
SOUTHCENTRAL IDAHO


CITY           SKY/WX    TMP DP  RH WIND       PRES   REMARKS
BURLEY         LGT RAIN  42  32  67 SW17G28   29.87
JEROME           N/A    N/A N/A N/A MISG      29.88R
TWIN FALLS     CLOUDY    41  33  73 S7        29.86
$$

IDZ019>023-201100-
SOUTHEAST IDAHO


CITY           SKY/WX    TMP DP  RH WIND       PRES   REMARKS
IDAHO FALLS    CLOUDY    29  29 100 N6        29.89S WCI  23
POCATELLO      CLOUDY    31  28  89 N3        29.89S
REXBURG        CLOUDY    32  29  88 NE3       29.90S
$$

IDZ006-010-011-018-031-032-201100-
CENTRAL IDAHO MOUNTAINS


CITY           SKY/WX    TMP DP  RH WIND       PRES   REMARKS
MCCALL         FLURRIES  32  30  92 SE6       29.70F WCI  26
HAILEY         FLURRIES  32  28  86 NW5       29.90R WCI  27
STANLEY          N/A     31  27  85 S7        29.78S WCI  24
SALMON         CLOUDY    34  30  86 CALM      29.80S
CHALLIS        CLOUDY    28  27  96 S3        29.80R
$$

IDZ002-004-006-007-026-201100-
NORTHERN IDAHO


CITY           SKY/WX    TMP DP  RH WIND       PRES   REMARKS
LEWISTON       CLOUDY    40  34  79 SE3       29.71S
LOWELL           N/A     35  32  88 CALM      29.80S
COEUR D`ALENE  CLOUDY    29  28  96 CALM      29.70R
MULLAN PASS    FOG       24  24 100 VRB6      29.63F VSB 3/4 WCI  17
$$



USA.gov is the U.S. government's official web portal to all federal, state and local government web resources and services.